Regional Weather Roundup
Issued by NWS Sioux Falls, SD

Home | Current Version | Previous Version | Text Only | Print | Product List | Glossary Off
Versions: 1 2 3 4 5 6 7 8 9 10 11 12 13 14 15 16 17 18 19 20 21 22 23 24 25 26 27 28 29 30 31 32 33 34 35 36 37 38 39 40 41 42 43 44 45 46 47 48 49 50

000
ASUS43 KFSD 291410
RWRFSD

WEATHER ROUNDUP FOR SE SOUTH DAKOTA/SW MINNESOTA/NW IOWA
NATIONAL WEATHER SERVICE SIOUX FALLS SD
900 AM CDT SUN MAY 29 2016

NOTE: "FAIR" INDICATES FEW OR NO CLOUDS BELOW 12,000 FEET WITH NO
SIGNIFICANT WEATHER AND OR OBSTRUCTIONS TO VISIBILITY.


SDZ038>040-050-052>070-291500-
SOUTHEAST SOUTH DAKOTA

CITY           SKY/WX    TMP DP  RH WIND       PRES   REMARKS
BROOKINGS      SUNNY     63  57  81 NW10      30.02R
CHAMBERLAIN    SUNNY     62  58  89 W3        30.07S
HURON          SUNNY     64  57  78 NW12      30.03R
MADISON        FAIR      63  63 100 NW10      30.04R
MITCHELL       SUNNY     65  59  81 NW7       30.05R
SIOUX FALLS    PTSUNNY   66  60  81 W8        30.03R
WINNER         FAIR      62  52  69 W5        30.09R
YANKTON        SUNNY     66  57  72 W10       30.04R
$$

MNZ071-072-080-081-089-090-097-098-291500-
SOUTHWEST MINNESOTA

CITY           SKY/WX    TMP DP  RH WIND       PRES   REMARKS
FAIRMONT       MOSUNNY   66  57  72 W17       30.00R
JACKSON        SUNNY     66  57  72 W12G18    30.02R
LUVERNE        SUNNY     64  57  77 W13       30.03R
MARSHALL       SUNNY     67  59  75 W16       29.98R
MONTEVIDEO     SUNNY     68  61  77 NW8       29.98R
PIPESTONE      SUNNY     64  57  77 NW12      30.02R
REDWOOD FALLS  SUNNY     67  57  70 W15G22    29.96R
TRACY          SUNNY     67  61  79 W10G16    29.99R
WINDOM         SUNNY     66  59  77 W7G17     30.00R
WORTHINGTON    SUNNY     65  60  84 W16       30.03R
$$

IAZ001>003-012>014-020>022-031-032-NEZ013-014-SDZ071-291500-
NORTHWEST IOWA

CITY           SKY/WX    TMP DP  RH WIND       PRES   REMARKS
CHEROKEE       MOSUNNY   64  62  96 SW6       30.06R
DENISON        SUNNY     63  59  88 SW7       30.06R
ESTHERVILLE    SUNNY     65  61  87 W15       30.02R
LE MARS        SUNNY     64  61  88 SW6       30.07R
ORANGE CITY    SUNNY     64  61  88 W6        30.05S
SHELDON        SUNNY     66  61  82 W9        30.03S
SIOUX CITY     SUNNY     67  60  78 SW8       30.07R
SPENCER        SUNNY     67  60  78 W10       30.04R
STORM LAKE     SUNNY     64  61  88 SW10      30.07R
$$

ABBREVIATIONS USED IN REMARKS
   TC - TEMPERATURE IN CELSIUS
  WCI - WIND CHILL INDEX
   HX - HEAT INDEX
  VSB - VISIBILITY





USA.gov is the U.S. government's official web portal to all federal, state and local government web resources and services.